TPC178 KAMA-KTUS

Flight info

Callsign TPC178
Flight time 1h 29m
Altitude 40000
Route PNH ONM J104 SSO ZONNA2
Aircraft C700/M-SBDGHM1RWXY/LB2

Departure

Time 2026-04-24 00:05
Airport Rick Husband Amarillo International Airport (KAMA)

Arrival

Time 2026-04-24 01:34
Airport Tucson International Airport (KTUS)
Time Latitude Longitude Altitude Speed Heading
2026-04-23 23:46 35.21042 -101.71719 3614 ft 0 kts 133°
2026-04-23 23:56 35.21035 -101.71723 3614 ft 2 kts 229°
2026-04-23 23:56 35.21063 -101.71772 3614 ft 12 kts 305°
2026-04-23 23:56 35.21097 -101.71870 3612 ft 14 kts 303°
2026-04-23 23:56 35.21187 -101.71907 3610 ft 18 kts 42°
2026-04-23 23:57 35.21269 -101.71790 3611 ft 19 kts 46°
2026-04-23 23:57 35.21366 -101.71672 3612 ft 21 kts 43°
2026-04-23 23:57 35.21467 -101.71546 3613 ft 21 kts 50°
2026-04-23 23:57 35.21574 -101.71409 3614 ft 23 kts 47°
2026-04-23 23:58 35.21693 -101.71263 3613 ft 26 kts 44°
2026-04-23 23:58 35.21825 -101.71096 3611 ft 28 kts 46°
2026-04-23 23:58 35.21966 -101.70918 3609 ft 30 kts 45°
2026-04-23 23:58 35.22114 -101.70731 3611 ft 31 kts 46°
2026-04-23 23:59 35.22260 -101.70549 3614 ft 30 kts 46°
2026-04-23 23:59 35.22403 -101.70369 3612 ft 29 kts 47°
2026-04-23 23:59 35.22539 -101.70194 3609 ft 29 kts 47°
2026-04-23 23:59 35.22667 -101.70030 3609 ft 24 kts 44°
2026-04-24 00:00 35.22787 -101.69881 3610 ft 21 kts 48°
2026-04-24 00:00 35.22891 -101.69833 3611 ft 16 kts 342°
2026-04-24 00:00 35.22956 -101.69894 3615 ft 6 kts 314°
2026-04-24 00:00 35.22973 -101.69914 3607 ft 0 kts 314°
2026-04-24 00:01 35.22992 -101.69938 3613 ft 5 kts 316°
2026-04-24 00:02 35.22999 -101.69946 3614 ft 0 kts 316°
2026-04-24 00:04 35.23012 -101.69961 3614 ft 10 kts 315°
2026-04-24 00:04 35.23041 -101.70078 3613 ft 15 kts 224°
2026-04-24 00:04 35.22842 -101.70333 3611 ft 86 kts 225°
2026-04-24 00:04 35.22233 -101.71081 3808 ft 152 kts 227°
2026-04-24 00:05 35.21355 -101.72132 4388 ft 206 kts 228°
2026-04-24 00:05 35.20228 -101.73361 5716 ft 224 kts 214°
2026-04-24 00:05 35.18621 -101.73681 7141 ft 248 kts 188°
2026-04-24 00:05 35.16961 -101.74311 8204 ft 253 kts 218°
2026-04-24 00:06 35.15634 -101.75715 9789 ft 255 kts 227°
2026-04-24 00:06 35.14348 -101.77287 10795 ft 276 kts 229°
2026-04-24 00:06 35.12957 -101.79032 11983 ft 292 kts 229°
2026-04-24 00:06 35.11746 -101.81015 13453 ft 294 kts 249°
2026-04-24 00:07 35.11367 -101.83459 14910 ft 294 kts 265°
2026-04-24 00:07 35.11239 -101.85957 16417 ft 296 kts 265°
2026-04-24 00:07 35.11030 -101.88481 17865 ft 300 kts 262°
2026-04-24 00:07 35.10683 -101.90917 19064 ft 304 kts 259°
2026-04-24 00:08 35.10284 -101.93494 20278 ft 308 kts 259°
2026-04-24 00:08 35.09932 -101.96094 21386 ft 312 kts 260°
2026-04-24 00:08 35.09594 -101.98726 22492 ft 316 kts 260°
2026-04-24 00:08 35.09234 -102.01396 23531 ft 320 kts 260°
2026-04-24 00:09 35.08861 -102.04097 24514 ft 322 kts 260°
2026-04-24 00:09 35.08491 -102.06806 25495 ft 325 kts 261°
2026-04-24 00:09 35.08123 -102.09516 26414 ft 328 kts 261°
2026-04-24 00:09 35.07747 -102.12281 27330 ft 331 kts 262°
2026-04-24 00:10 35.07364 -102.15076 28229 ft 334 kts 262°
2026-04-24 00:10 35.06977 -102.17899 29134 ft 338 kts 262°
2026-04-24 00:10 35.06590 -102.20712 30058 ft 341 kts 262°
2026-04-24 00:10 35.06196 -102.23581 30833 ft 343 kts 262°
2026-04-24 00:11 35.05798 -102.26466 31548 ft 346 kts 262°
2026-04-24 00:11 35.05532 -102.28392 32025 ft 348 kts 261°
2026-04-24 00:11 35.05128 -102.31316 32738 ft 350 kts 261°
2026-04-24 00:11 35.04720 -102.34260 33402 ft 353 kts 261°
2026-04-24 00:12 35.04308 -102.37231 34005 ft 355 kts 261°
2026-04-24 00:12 35.03898 -102.40188 34514 ft 358 kts 261°
2026-04-24 00:12 35.03477 -102.43208 35024 ft 361 kts 261°
2026-04-24 00:12 35.03054 -102.46239 35542 ft 362 kts 261°
2026-04-24 00:13 35.02632 -102.49262 36230 ft 359 kts 261°
2026-04-24 00:13 35.02212 -102.52256 36833 ft 357 kts 261°
2026-04-24 00:13 35.01794 -102.55236 37401 ft 354 kts 262°
2026-04-24 00:13 35.01379 -102.58190 37945 ft 352 kts 262°
2026-04-24 00:14 35.00971 -102.61090 38420 ft 350 kts 262°
2026-04-24 00:14 35.00558 -102.64020 38712 ft 351 kts 262°
2026-04-24 00:14 35.00142 -102.66970 38938 ft 353 kts 262°
2026-04-24 00:14 34.99723 -102.69931 39173 ft 355 kts 262°
2026-04-24 00:15 34.99300 -102.72907 39408 ft 356 kts 262°
2026-04-24 00:15 34.98873 -102.75911 39632 ft 358 kts 262°
2026-04-24 00:15 34.98013 -102.81951 39687 ft 369 kts 261°
2026-04-24 00:16 34.97125 -102.88171 39694 ft 372 kts 261°
2026-04-24 00:16 34.96238 -102.94338 39684 ft 369 kts 261°
2026-04-24 00:17 34.95352 -103.00494 39683 ft 367 kts 261°
2026-04-24 00:17 34.94463 -103.06639 39676 ft 369 kts 261°
2026-04-24 00:18 34.93562 -103.12842 39687 ft 373 kts 261°
2026-04-24 00:18 34.92658 -103.19040 39685 ft 373 kts 261°
2026-04-24 00:19 34.91746 -103.25278 39678 ft 373 kts 261°
2026-04-24 00:19 34.90830 -103.31519 39677 ft 374 kts 261°
2026-04-24 00:20 34.89918 -103.37707 39657 ft 371 kts 261°
2026-04-24 00:20 34.89004 -103.43883 39657 ft 369 kts 261°
2026-04-24 00:21 34.88097 -103.50012 39625 ft 370 kts 261°
2026-04-24 00:21 34.87176 -103.56182 39636 ft 372 kts 261°
2026-04-24 00:22 34.86248 -103.62398 39634 ft 373 kts 261°
2026-04-24 00:22 34.85313 -103.68624 39636 ft 374 kts 260°
2026-04-24 00:23 34.84376 -103.74847 39630 ft 373 kts 260°
2026-04-24 00:23 34.83443 -103.81023 39625 ft 372 kts 260°
2026-04-24 00:24 34.82501 -103.87229 39624 ft 371 kts 260°
2026-04-24 00:24 34.81560 -103.93408 39616 ft 371 kts 260°
2026-04-24 00:25 34.80625 -103.99537 39618 ft 370 kts 260°
2026-04-24 00:25 34.79680 -104.05696 39619 ft 371 kts 260°
2026-04-24 00:26 34.78730 -104.11875 39613 ft 374 kts 260°
2026-04-24 00:26 34.77766 -104.18120 39616 ft 374 kts 260°
2026-04-24 00:27 34.76810 -104.24284 39617 ft 371 kts 260°
2026-04-24 00:27 34.75852 -104.30449 39640 ft 369 kts 260°
2026-04-24 00:28 34.74896 -104.36579 39685 ft 372 kts 260°
2026-04-24 00:28 34.73923 -104.42794 39708 ft 375 kts 260°
2026-04-24 00:29 34.72950 -104.48990 39730 ft 373 kts 260°
2026-04-24 00:29 34.71973 -104.55181 39745 ft 371 kts 260°
2026-04-24 00:30 34.71000 -104.61336 39741 ft 370 kts 259°
2026-04-24 00:30 34.70026 -104.67469 39745 ft 372 kts 259°
2026-04-24 00:31 34.69035 -104.73700 39738 ft 375 kts 259°
2026-04-24 00:31 34.68048 -104.79870 39713 ft 372 kts 259°
2026-04-24 00:32 34.67059 -104.86035 39687 ft 370 kts 259°
2026-04-24 00:32 34.66075 -104.92156 39662 ft 372 kts 259°
2026-04-24 00:33 34.65072 -104.98371 39682 ft 376 kts 259°
2026-04-24 00:33 34.64058 -105.04629 39685 ft 377 kts 259°
2026-04-24 00:34 34.63054 -105.10806 39697 ft 373 kts 259°
2026-04-24 00:34 34.62049 -105.16966 39693 ft 372 kts 259°
2026-04-24 00:35 34.61037 -105.23158 39714 ft 375 kts 259°
2026-04-24 00:35 34.60012 -105.29402 39700 ft 377 kts 259°
2026-04-24 00:36 34.58987 -105.35619 39718 ft 379 kts 259°
2026-04-24 00:36 34.57949 -105.41906 39734 ft 380 kts 259°
2026-04-24 00:37 34.56910 -105.48169 39733 ft 377 kts 259°
2026-04-24 00:37 34.55875 -105.54387 39744 ft 374 kts 259°
2026-04-24 00:38 34.54845 -105.60563 39741 ft 377 kts 259°
2026-04-24 00:38 34.53796 -105.66829 39765 ft 379 kts 259°
2026-04-24 00:39 34.52743 -105.73090 39765 ft 377 kts 259°
2026-04-24 00:39 34.51702 -105.79269 39769 ft 376 kts 259°
2026-04-24 00:40 34.50651 -105.85479 39765 ft 374 kts 259°
2026-04-24 00:40 34.49602 -105.91663 39763 ft 375 kts 259°
2026-04-24 00:41 34.48550 -105.97849 39766 ft 378 kts 259°
2026-04-24 00:41 34.47480 -106.04113 39767 ft 378 kts 259°
2026-04-24 00:42 34.46416 -106.10330 39766 ft 375 kts 259°
2026-04-24 00:42 34.45358 -106.16478 39763 ft 374 kts 259°
2026-04-24 00:43 34.44290 -106.22681 39759 ft 376 kts 258°
2026-04-24 00:43 34.43220 -106.28864 39759 ft 376 kts 258°
2026-04-24 00:44 34.42144 -106.35072 39784 ft 376 kts 258°
2026-04-24 00:44 34.41070 -106.41235 39757 ft 374 kts 258°
2026-04-24 00:45 34.39994 -106.47405 39749 ft 373 kts 258°
2026-04-24 00:45 34.38919 -106.53539 39736 ft 374 kts 259°
2026-04-24 00:46 34.37831 -106.59728 39740 ft 375 kts 258°
2026-04-24 00:46 34.36742 -106.65914 39726 ft 376 kts 258°
2026-04-24 00:47 34.35651 -106.72081 39719 ft 376 kts 258°
2026-04-24 00:47 34.34104 -106.78110 39732 ft 378 kts 250°
2026-04-24 00:48 34.31636 -106.83776 39719 ft 381 kts 242°
2026-04-24 00:48 34.28343 -106.88805 39794 ft 386 kts 233°
2026-04-24 00:49 34.24558 -106.93421 39810 ft 386 kts 232°
2026-04-24 00:49 34.20756 -106.98070 39832 ft 390 kts 232°
2026-04-24 00:50 34.16935 -107.02709 39844 ft 391 kts 232°
2026-04-24 00:50 34.13111 -107.07358 39833 ft 388 kts 232°
2026-04-24 00:51 34.09311 -107.11969 39821 ft 389 kts 232°
2026-04-24 00:51 34.05492 -107.16597 39813 ft 386 kts 231°
2026-04-24 00:52 34.01686 -107.21207 39775 ft 393 kts 231°
2026-04-24 00:52 33.97845 -107.25837 39763 ft 386 kts 232°
2026-04-24 00:53 33.94061 -107.30416 39739 ft 387 kts 231°
2026-04-24 00:53 33.90264 -107.34987 39746 ft 389 kts 231°
2026-04-24 00:54 33.86424 -107.39610 39736 ft 393 kts 231°
2026-04-24 00:54 33.82560 -107.44253 39732 ft 391 kts 232°
2026-04-24 00:55 33.78770 -107.48803 39753 ft 389 kts 231°
2026-04-24 00:55 33.74896 -107.53450 39766 ft 393 kts 231°
2026-04-24 00:56 33.71030 -107.58076 39727 ft 390 kts 231°
2026-04-24 00:56 33.67236 -107.62610 39763 ft 384 kts 231°
2026-04-24 00:57 33.63435 -107.67154 39770 ft 386 kts 231°
2026-04-24 00:58 33.57690 -107.74001 39773 ft 389 kts 231°
2026-04-24 00:58 33.53863 -107.78553 39801 ft 390 kts 231°
2026-04-24 00:59 33.50662 -107.82363 39808 ft 388 kts 231°
2026-04-24 00:59 33.46194 -107.87661 39805 ft 387 kts 231°
2026-04-24 01:00 33.43007 -107.91444 39818 ft 387 kts 231°
2026-04-24 01:00 33.39177 -107.95980 39823 ft 385 kts 231°
2026-04-24 01:01 33.35366 -108.00478 39821 ft 384 kts 231°
2026-04-24 01:01 33.31569 -108.04970 39832 ft 383 kts 231°
2026-04-24 01:02 33.27765 -108.09453 39830 ft 384 kts 231°
2026-04-24 01:02 33.23322 -108.14689 39837 ft 388 kts 231°
2026-04-24 01:03 33.20125 -108.18448 39841 ft 386 kts 231°
2026-04-24 01:03 33.16299 -108.22935 39833 ft 383 kts 231°
2026-04-24 01:04 33.12518 -108.27376 39834 ft 385 kts 231°
2026-04-24 01:04 33.08684 -108.31860 39837 ft 385 kts 231°
2026-04-24 01:05 33.04880 -108.36318 39830 ft 381 kts 231°
2026-04-24 01:05 33.01064 -108.40787 39829 ft 386 kts 231°
2026-04-24 01:06 32.97272 -108.45183 39832 ft 379 kts 232°
2026-04-24 01:06 32.93506 -108.49596 39841 ft 381 kts 231°
2026-04-24 01:07 32.89687 -108.54035 39842 ft 384 kts 231°
2026-04-24 01:07 32.85889 -108.58446 39838 ft 383 kts 231°
2026-04-24 01:07 32.83976 -108.60668 39688 ft 383 kts 231°
2026-04-24 01:08 32.82077 -108.62873 39274 ft 377 kts 231°
2026-04-24 01:08 32.80211 -108.65026 38862 ft 368 kts 231°
2026-04-24 01:08 32.78422 -108.67104 38422 ft 359 kts 232°
2026-04-24 01:08 32.76652 -108.69152 38015 ft 351 kts 232°
2026-04-24 01:09 32.74914 -108.71179 37626 ft 352 kts 232°
2026-04-24 01:09 32.73131 -108.73253 37229 ft 363 kts 232°
2026-04-24 01:09 32.71294 -108.75375 36815 ft 372 kts 232°
2026-04-24 01:09 32.69425 -108.77522 36394 ft 373 kts 232°
2026-04-24 01:10 32.67567 -108.79664 35977 ft 373 kts 232°
2026-04-24 01:10 32.65709 -108.81813 35562 ft 374 kts 232°
2026-04-24 01:10 32.63829 -108.83991 35142 ft 379 kts 231°
2026-04-24 01:10 32.61950 -108.86153 34715 ft 383 kts 231°
2026-04-24 01:11 32.60027 -108.88362 34282 ft 384 kts 231°
2026-04-24 01:11 32.58093 -108.90591 33855 ft 385 kts 231°
2026-04-24 01:11 32.56192 -108.92778 33395 ft 386 kts 231°
2026-04-24 01:11 32.54247 -108.95020 32961 ft 394 kts 231°
2026-04-24 01:12 32.52257 -108.97309 32512 ft 402 kts 230°
2026-04-24 01:12 32.50236 -108.99625 32056 ft 405 kts 230°
2026-04-24 01:12 32.48196 -109.01963 31601 ft 407 kts 230°
2026-04-24 01:12 32.46157 -109.04301 31139 ft 408 kts 230°
2026-04-24 01:13 32.44135 -109.06623 30692 ft 412 kts 230°
2026-04-24 01:13 32.42053 -109.09014 30229 ft 420 kts 229°
2026-04-24 01:13 32.39944 -109.11432 29739 ft 423 kts 229°
2026-04-24 01:13 32.37826 -109.13846 29251 ft 419 kts 229°
2026-04-24 01:14 32.35740 -109.16222 28788 ft 413 kts 229°
2026-04-24 01:14 32.33685 -109.18574 28326 ft 410 kts 229°
2026-04-24 01:14 32.31682 -109.20954 27863 ft 406 kts 232°
2026-04-24 01:14 32.29951 -109.23514 27416 ft 401 kts 238°
2026-04-24 01:15 32.28475 -109.26284 26985 ft 397 kts 243°
2026-04-24 01:15 32.27280 -109.29206 26545 ft 394 kts 249°
2026-04-24 01:15 32.26371 -109.32258 26101 ft 391 kts 255°
2026-04-24 01:15 32.25757 -109.35390 25664 ft 390 kts 260°
2026-04-24 01:16 32.25360 -109.38551 25233 ft 387 kts 261°
2026-04-24 01:16 32.24961 -109.41691 24803 ft 385 kts 261°
2026-04-24 01:16 32.24558 -109.44769 24380 ft 383 kts 261°
2026-04-24 01:16 32.24156 -109.47871 23955 ft 382 kts 261°
2026-04-24 01:17 32.23761 -109.50969 23517 ft 380 kts 261°
2026-04-24 01:17 32.23365 -109.54060 23068 ft 379 kts 261°
2026-04-24 01:17 32.22964 -109.57135 22639 ft 380 kts 261°
2026-04-24 01:17 32.22564 -109.60217 22220 ft 378 kts 261°
2026-04-24 01:18 32.22168 -109.63289 21787 ft 376 kts 261°
2026-04-24 01:18 32.21777 -109.66291 21372 ft 372 kts 262°
2026-04-24 01:18 32.21384 -109.69290 20970 ft 368 kts 262°
2026-04-24 01:18 32.20838 -109.72251 20558 ft 369 kts 256°
2026-04-24 01:19 32.20144 -109.75185 20146 ft 370 kts 256°
2026-04-24 01:19 32.19477 -109.78123 19733 ft 369 kts 256°
2026-04-24 01:19 32.18822 -109.81009 19332 ft 366 kts 256°
2026-04-24 01:19 32.18152 -109.83904 18927 ft 365 kts 256°
2026-04-24 01:20 32.17480 -109.86796 18520 ft 365 kts 256°
2026-04-24 01:20 32.16810 -109.89700 18103 ft 365 kts 256°
2026-04-24 01:20 32.16145 -109.92582 17672 ft 362 kts 256°
2026-04-24 01:20 32.15486 -109.95430 17317 ft 357 kts 256°
2026-04-24 01:21 32.14837 -109.98224 16925 ft 356 kts 256°
2026-04-24 01:21 32.14182 -110.01042 16527 ft 355 kts 256°
2026-04-24 01:21 32.13527 -110.03856 16128 ft 353 kts 256°
2026-04-24 01:21 32.12880 -110.06644 15733 ft 350 kts 256°
2026-04-24 01:22 32.12238 -110.09406 15353 ft 348 kts 256°
2026-04-24 01:22 32.11605 -110.12117 14974 ft 346 kts 256°
2026-04-24 01:22 32.10967 -110.14841 14583 ft 343 kts 256°
2026-04-24 01:22 32.10349 -110.17485 14204 ft 323 kts 256°
2026-04-24 01:23 32.09770 -110.19965 13849 ft 302 kts 256°
2026-04-24 01:23 32.09227 -110.22286 13500 ft 285 kts 256°
2026-04-24 01:23 32.08712 -110.24486 13181 ft 272 kts 256°
2026-04-24 01:23 32.08213 -110.26625 12881 ft 271 kts 256°
2026-04-24 01:24 32.07711 -110.28766 12581 ft 275 kts 256°
2026-04-24 01:24 32.07192 -110.30953 12273 ft 277 kts 255°
2026-04-24 01:24 32.06651 -110.33136 11967 ft 276 kts 254°
2026-04-24 01:24 32.06095 -110.35270 11934 ft 268 kts 253°
2026-04-24 01:25 32.05536 -110.37382 11934 ft 273 kts 253°
2026-04-24 01:25 32.04968 -110.39539 11936 ft 277 kts 253°
2026-04-24 01:25 32.04394 -110.41712 11937 ft 278 kts 253°
2026-04-24 01:25 32.03828 -110.43853 11939 ft 275 kts 253°
2026-04-24 01:26 32.03259 -110.45996 11935 ft 273 kts 253°
2026-04-24 01:26 32.02689 -110.48140 11933 ft 276 kts 253°
2026-04-24 01:26 32.02109 -110.50318 11936 ft 279 kts 253°
2026-04-24 01:26 32.01531 -110.52493 11932 ft 276 kts 253°
2026-04-24 01:27 32.00959 -110.54653 11936 ft 276 kts 253°
2026-04-24 01:27 32.00387 -110.56811 11933 ft 275 kts 253°
2026-04-24 01:27 31.99817 -110.58964 11929 ft 274 kts 253°
2026-04-24 01:27 31.99279 -110.60993 11904 ft 247 kts 253°
2026-04-24 01:28 31.98783 -110.62857 11929 ft 234 kts 253°
2026-04-24 01:28 31.98302 -110.64663 11586 ft 232 kts 253°
2026-04-24 01:28 31.97823 -110.66474 11137 ft 234 kts 253°
2026-04-24 01:28 31.97334 -110.68363 10421 ft 246 kts 254°
2026-04-24 01:29 31.97011 -110.70368 9707 ft 255 kts 269°
2026-04-24 01:29 31.97183 -110.72381 8949 ft 234 kts 277°
2026-04-24 01:29 31.97446 -110.74178 8174 ft 217 kts 279°
2026-04-24 01:29 31.97696 -110.75855 7955 ft 191 kts 278°
2026-04-24 01:30 31.98006 -110.77331 7956 ft 192 kts 289°
2026-04-24 01:30 31.98643 -110.78713 7965 ft 194 kts 303°
2026-04-24 01:30 31.99563 -110.79918 7652 ft 195 kts 312°
2026-04-24 01:30 32.00541 -110.81000 6986 ft 190 kts 313°
2026-04-24 01:31 32.01498 -110.82090 6109 ft 189 kts 311°
2026-04-24 01:31 32.02416 -110.83164 5185 ft 184 kts 311°
2026-04-24 01:31 32.03304 -110.84206 4450 ft 182 kts 311°
2026-04-24 01:31 32.04212 -110.85277 4339 ft 191 kts 313°
2026-04-24 01:32 32.05126 -110.86330 4148 ft 174 kts 312°
2026-04-24 01:32 32.05922 -110.87272 3923 ft 153 kts 311°
2026-04-24 01:32 32.06650 -110.88121 3749 ft 139 kts 312°
2026-04-24 01:32 32.07327 -110.88927 3533 ft 136 kts 314°
2026-04-24 01:33 32.08030 -110.89753 3323 ft 141 kts 313°
2026-04-24 01:33 32.08712 -110.90539 3115 ft 135 kts 310°
2026-04-24 01:33 32.09400 -110.91356 2924 ft 145 kts 314°
2026-04-24 01:33 32.10080 -110.92155 2681 ft 133 kts 313°
2026-04-24 01:34 32.10640 -110.92813 2604 ft 84 kts 315°
2026-04-24 01:34 32.10953 -110.93171 2601 ft 42 kts 317°
2026-04-24 01:34 32.11084 -110.93269 2602 ft 6 kts 18°
2026-04-24 01:34 32.11123 -110.93232 2603 ft 0 kts 42°
2026-04-24 01:35 32.11133 -110.93222 2602 ft 9 kts 43°
2026-04-24 01:35 32.11231 -110.93241 2604 ft 20 kts 309°
2026-04-24 01:35 32.11340 -110.93375 2603 ft 24 kts 316°
2026-04-24 01:35 32.11458 -110.93515 2604 ft 25 kts 315°
2026-04-24 01:36 32.11587 -110.93667 2600 ft 28 kts 318°
2026-04-24 01:36 32.11729 -110.93830 2593 ft 30 kts 314°
2026-04-24 01:36 32.11874 -110.94004 2600 ft 30 kts 317°
2026-04-24 01:36 32.12019 -110.94180 2602 ft 29 kts 315°
2026-04-24 01:37 32.12151 -110.94331 2602 ft 27 kts 315°
2026-04-24 01:37 32.12280 -110.94392 2600 ft 20 kts 24°
2026-04-24 01:37 32.12376 -110.94355 2599 ft 11 kts
2026-04-24 01:37 32.12413 -110.94379 2594 ft 5 kts 199°
2026-04-24 01:38 32.12394 -110.94364 2593 ft 0 kts 139°